Weather Roundup
Issued by NWS

Home | Current Version | Previous Version | Graphics & Text | Print | Product List | Glossary Off
Versions: 1 2 3 4 5 6 7 8 9 10 11 12 13 14 15 16 17 18 19 20 21 22 23 24 25 26 27 28 29 30 31 32 33 34 35 36 37 38 39 40 41 42 43 44 45 46 47 48 49 50

000
NZUS93 KARX 201959
HRRWXR

CURRENT HOURLY OBSERVATIONS ACROSS
MUCH OF THE UPPER MISSISSIPPI VALLEY
NATIONAL WEATHER SERVICE LA CROSSE WI
300 PM CDT SUN AUG 20 2017


...SOUTHEAST MINNESOTA...


CITY           SKY/WX    TMP DP  RH WIND       PRES   REMARKS
ROCHESTER      SUNNY     81  67  62 W12       29.97S
ROCHESTER/MAYO FAIR      83  61  48 W14       29.97S
WINONA         SUNNY     82  61  47 SW7       29.94F
AUSTIN           N/A     82 N/A N/A SW8       29.96F
ALBERT LEA     SUNNY     86  68  54 W7        29.96F
DODGE CENTER   PTSUNNY   79  64  61 SW7       29.97F
PRESTON        SUNNY     81  63  52 SW9       29.97F
OWATONNA       SUNNY     82  70  65 S10       29.96S
FARIBAULT      SUNNY     82  70  65 SW7       29.95S
$$

...ELSEWHERE IN MINNESOTA...


CITY           SKY/WX    TMP DP  RH WIND       PRES   REMARKS
MINNEAPOLIS    MOSUNNY   84  68  58 VRB3      29.92F
INTNL FALLS    SUNNY     75  49  39 NW14G21   29.90R
DULUTH         MOSUNNY   78  59  51 NW13G21   29.92R
RED WING       MOSUNNY   84  63  48 SW8       29.92S
REDWOOD FALLS  PTSUNNY   78  65  63 NW6       29.97R
MANKATO        PTSUNNY   81  71  71 W7        29.95S
WORTHINGTON    MOSUNNY   80  70  71 NE7       29.99S
FAIRMONT       SUNNY     81  68  64 S7        29.96F
$$

...SOUTHWEST WISCONSIN...


CITY           SKY/WX    TMP DP  RH WIND       PRES   REMARKS
LA CROSSE      SUNNY     88  64  44 SW8       29.94F
PRAIRIE DU CHI CLOUDY    77  62  60 CALM      29.95S
BOSCOBEL       CLOUDY    80  65  59 NE5       29.96F
LONE ROCK      NOT AVBL
PLATTEVILLE    CLOUDY    76  69  78 E7        29.98F
FORT MC COY    SUNNY     81  64  57 SW9       29.97F
MAUSTON-NEW LI PTCLDY    80  67  64 W8        29.97F
VIROQUA        FAIR      78  68  70 CALM      30.00S
WIS DELLS      CLOUDY    79  62  54 SW3       29.99F
$$

...ELSEWHERE IN WISCONSIN...


CITY           SKY/WX    TMP DP  RH WIND       PRES   REMARKS
MILWAUKEE      CLOUDY    84  66  54 W7        30.00F
MADISON        CLOUDY    78  65  63 SW5       30.00S
GREEN BAY      CLOUDY    77  69  76 S10       29.97F
EAU CLAIRE     NOT AVBL
BLACK RVR FLS  FAIR      83  63  50 SW10      29.96F
MEDFORD        SUNNY     78  64  60 SW12G22   29.95F
WAUSAU         SUNNY     82  63  52 SW17G25   29.94F
WIS RAPIDS     PTSUNNY   82  66  58 SW9       29.98F
MARSHFIELD     SUNNY     82  63  52 W14       29.96F
RICE LAKE      PTSUNNY   78  68  70 W8        29.95S
$$

...NORTHEAST IOWA...


CITY           SKY/WX    TMP DP  RH WIND       PRES   REMARKS
WATERLOO       SUNNY     85  61  44 W5        29.93S
DUBUQUE        CLOUDY    74  67  78 NE9       29.98F
DECORAH        SUNNY     82  64  54 CALM      29.94F
MASON CITY     SUNNY     84  65  52 W8        29.96F
CHARLES CITY   SUNNY     82  66  57 CALM      29.95F
OELWEIN        SUNNY     84  66  54 CALM      29.96R
$$

...ELSEWHERE IN IOWA...


CITY           SKY/WX    TMP DP  RH WIND       PRES   REMARKS
DES MOINES     CLOUDY    78  68  71 W12       29.95R
IOWA CITY      CLOUDY    80  68  66 SE8       29.98S
FORT DODGE     SUNNY     84  66  54 W7        29.96F
MARSHALLTOWN   CLOUDY    83  68  60 VRB3      29.94R
CEDAR RAPIDS   CLOUDY    77  67  71 S13       29.96R
$$

...NORTHERN ILLINOIS...


CITY           SKY/WX    TMP DP  RH WIND       PRES   REMARKS
CHICAGO-OHARE  CLOUDY    88  62  41 W8        30.00S
CHICAGO-MIDWAY PTSUNNY   88  66  48 W8        30.01S HX  90
MOLINE         MOSUNNY   77  68  73 E8        29.96F
ROCKFORD       CLOUDY    82  66  58 E7        30.01F
PEORIA         CLOUDY    86  69  56 SE13      29.98F HX  90
$$

NOTE: "FAIR" INDICATES FEW OR NO CLOUDS BELOW 12,000 FEET WITH NO
SIGNIFICANT WEATHER AND/OR OBSTRUCTIONS TO VISIBILITY. WIND
SPEEDS ARE IN MILES-PER-HOUR.




USA.gov is the U.S. government's official web portal to all federal, state and local government web resources and services.